Time,TemperatureF,DewpointF,PressureIn,WindDirection,WindDirectionDegrees,WindSpeedMPH,WindSpeedGustMPH,Humidity,HourlyPrecipIn,Conditions,Clouds,dailyrainin,SolarRadiationWatts/m^2,SoftwareType,DateUTC
2013-02-04 00:01:00,41.9,41.0,30.15,WSW,248,0.0,0.0,95,0.00,,,0.00,0,weatherlink.com 1.10,2013-02-04 08:01:00,
2013-02-04 00:17:00,40.8,39.0,30.14,WSW,248,0.0,0.0,94,0.00,,,0.00,0,weatherlink.com 1.10,2013-02-04 08:17:00,
2013-02-04 00:32:00,40.9,40.0,30.15,WSW,248,0.0,0.0,95,0.00,,,0.00,0,weatherlink.com 1.10,2013-02-04 08:32:00,
2013-02-04 00:47:00,41.6,40.0,30.15,WSW,248,0.0,1.0,95,0.00,,,0.00,0,weatherlink.com 1.10,2013-02-04 08:47:00,
2013-02-04 01:17:00,39.5,38.0,30.15,WSW,248,0.0,0.0,95,0.00,,,0.00,0,weatherlink.com 1.10,2013-02-04 09:17:00,
2013-02-04 01:32:00,39.9,39.0,30.15,WSW,248,0.0,0.0,95,0.00,,,0.00,0,weatherlink.com 1.10,2013-02-04 09:32:00,
2013-02-04 01:47:00,41.2,40.0,30.15,WSW,248,0.0,0.0,95,0.00,,,0.00,0,weatherlink.com 1.10,2013-02-04 09:47:00,
2013-02-04 02:02:00,39.6,38.0,30.15,WSW,248,0.0,0.0,95,0.00,,,0.00,0,weatherlink.com 1.10,2013-02-04 10:02:00,
2013-02-04 02:17:00,40.2,39.0,30.15,SW,235,0.0,0.0,95,0.00,,,0.00,0,weatherlink.com 1.10,2013-02-04 10:17:00,
2013-02-04 02:32:00,40.1,39.0,30.15,SW,235,0.0,0.0,95,0.00,,,0.00,0,weatherlink.com 1.10,2013-02-04 10:32:00,
2013-02-04 02:47:00,39.3,38.0,30.14,SW,235,0.0,0.0,95,0.00,,,0.00,0,weatherlink.com 1.10,2013-02-04 10:47:00,
2013-02-04 03:02:00,39.4,38.0,30.14,SW,235,0.0,0.0,95,0.00,,,0.00,0,weatherlink.com 1.10,2013-02-04 11:02:00,
2013-02-04 03:17:00,39.1,38.0,30.14,SW,235,0.0,0.0,95,0.00,,,0.00,0,weatherlink.com 1.10,2013-02-04 11:17:00,
2013-02-04 03:32:00,39.7,38.0,30.13,SW,235,0.0,0.0,95,0.00,,,0.00,0,weatherlink.com 1.10,2013-02-04 11:32:00,
2013-02-04 03:47:00,39.5,38.0,30.14,SW,235,0.0,0.0,95,0.00,,,0.00,0,weatherlink.com 1.10,2013-02-04 11:47:00,
2013-02-04 04:02:00,39.5,38.0,30.14,SW,235,0.0,0.0,95,0.00,,,0.00,0,weatherlink.com 1.10,2013-02-04 12:02:00,
2013-02-04 04:17:00,39.3,38.0,30.14,SW,235,0.0,0.0,95,0.00,,,0.00,0,weatherlink.com 1.10,2013-02-04 12:17:00,
2013-02-04 04:32:00,39.0,38.0,30.14,SW,235,0.0,0.0,95,0.00,,,0.00,0,weatherlink.com 1.10,2013-02-04 12:32:00,
2013-02-04 04:47:00,38.7,37.0,30.14,SW,235,0.0,0.0,95,0.00,,,0.00,0,weatherlink.com 1.10,2013-02-04 12:47:00,
2013-02-04 05:02:00,38.3,37.0,30.14,SW,236,0.0,0.0,95,0.00,,,0.00,0,weatherlink.com 1.10,2013-02-04 13:02:00,
2013-02-04 05:17:00,38.1,37.0,30.14,SW,235,0.0,0.0,95,0.00,,,0.00,0,weatherlink.com 1.10,2013-02-04 13:17:00,
2013-02-04 05:32:00,38.3,37.0,30.14,SW,235,0.0,0.0,95,0.00,,,0.00,0,weatherlink.com 1.10,2013-02-04 13:32:00,
2013-02-04 05:47:00,38.7,37.0,30.14,SW,235,0.0,0.0,95,0.00,,,0.00,0,weatherlink.com 1.10,2013-02-04 13:47:00,
2013-02-04 06:02:00,39.1,38.0,30.14,SW,236,0.0,0.0,95,0.00,,,0.00,0,weatherlink.com 1.10,2013-02-04 14:02:00,
2013-02-04 06:17:00,39.2,38.0,30.15,SW,236,0.0,0.0,95,0.00,,,0.00,0,weatherlink.com 1.10,2013-02-04 14:17:00,
2013-02-04 06:32:00,39.3,38.0,30.15,SW,236,0.0,0.0,95,0.01,,,0.01,0,weatherlink.com 1.10,2013-02-04 14:32:00,
2013-02-04 06:47:00,39.4,38.0,30.15,SW,236,0.0,0.0,95,0.01,,,0.01,0,weatherlink.com 1.10,2013-02-04 14:47:00,
2013-02-04 07:02:00,38.9,38.0,30.15,SW,236,0.0,0.0,95,0.01,,,0.01,0,weatherlink.com 1.10,2013-02-04 15:02:00,
2013-02-04 07:17:00,38.7,37.0,30.16,SW,236,0.0,0.0,95,0.01,,,0.01,5,weatherlink.com 1.10,2013-02-04 15:17:00,
2013-02-04 07:32:00,38.7,37.0,30.16,SW,236,0.0,0.0,95,0.00,,,0.01,18,weatherlink.com 1.10,2013-02-04 15:32:00,
2013-02-04 07:47:00,39.1,38.0,30.16,SW,236,0.0,0.0,95,0.00,,,0.01,40,weatherlink.com 1.10,2013-02-04 15:47:00,
2013-02-04 08:02:00,39.4,38.0,30.16,SW,236,0.0,0.0,95,0.00,,,0.01,54,weatherlink.com 1.10,2013-02-04 16:02:00,
2013-02-04 08:17:00,39.4,38.0,30.16,WSW,249,0.0,1.0,95,0.00,,,0.01,67,weatherlink.com 1.10,2013-02-04 16:17:00,
2013-02-04 08:32:00,39.7,38.0,30.16,WSW,249,0.0,0.0,95,0.00,,,0.01,76,weatherlink.com 1.10,2013-02-04 16:32:00,
2013-02-04 08:47:00,40.2,39.0,30.16,WSW,249,0.0,0.0,95,0.00,,,0.01,105,weatherlink.com 1.10,2013-02-04 16:47:00,
2013-02-04 09:03:00,40.5,39.0,30.17,WSW,250,0.0,1.0,95,0.00,,,0.01,111,weatherlink.com 1.10,2013-02-04 17:03:00,
2013-02-04 09:17:00,40.7,39.0,30.17,WSW,250,0.0,1.0,95,0.00,,,0.01,139,weatherlink.com 1.10,2013-02-04 17:17:00,
2013-02-04 09:33:00,41.4,40.0,30.17,WSW,250,0.0,0.0,96,0.00,,,0.01,163,weatherlink.com 1.10,2013-02-04 17:33:00,
2013-02-04 09:48:00,42.0,41.0,30.18,WSW,250,0.0,1.0,95,0.00,,,0.01,149,weatherlink.com 1.10,2013-02-04 17:48:00,
2013-02-04 10:18:00,42.4,41.0,30.17,NE,45,0.0,4.0,96,0.00,,,0.01,158,weatherlink.com 1.10,2013-02-04 18:18:00,
2013-02-04 10:33:00,43.0,42.0,30.17,NE,38,0.0,4.0,96,0.00,,,0.01,165,weatherlink.com 1.10,2013-02-04 18:33:00,
2013-02-04 10:48:00,43.9,43.0,30.17,NE,40,0.0,3.0,96,0.00,,,0.01,169,weatherlink.com 1.10,2013-02-04 18:48:00,
2013-02-04 11:03:00,44.8,44.0,30.17,NE,40,0.0,0.0,96,0.00,,,0.01,193,weatherlink.com 1.10,2013-02-04 19:03:00,
2013-02-04 11:18:00,45.8,45.0,30.16,NNE,17,1.0,4.0,96,0.00,,,0.01,207,weatherlink.com 1.10,2013-02-04 19:18:00,
2013-02-04 11:33:00,46.5,46.0,30.16,NE,42,2.0,4.0,96,0.00,,,0.01,269,weatherlink.com 1.10,2013-02-04 19:33:00,
2013-02-04 11:48:00,46.8,46.0,30.16,NE,47,2.0,5.0,96,0.00,,,0.01,288,weatherlink.com 1.10,2013-02-04 19:48:00,
2013-02-04 12:03:00,47.7,47.0,30.14,NE,41,3.0,5.0,96,0.00,,,0.01,269,weatherlink.com 1.10,2013-02-04 20:03:00,
2013-02-04 12:18:00,48.4,47.0,30.14,NE,55,3.0,6.0,96,0.00,,,0.01,308,weatherlink.com 1.10,2013-02-04 20:18:00,
2013-02-04 12:33:00,49.2,48.0,30.14,South,190,0.0,6.0,96,0.00,,,0.01,418,weatherlink.com 1.10,2013-02-04 20:33:00,
2013-02-04 12:48:00,51.1,50.0,30.13,NE,48,1.0,7.0,94,0.00,,,0.01,432,weatherlink.com 1.10,2013-02-04 20:48:00,
2013-02-04 13:03:00,51.1,49.0,30.12,South,185,0.0,9.0,91,0.00,,,0.01,434,weatherlink.com 1.10,2013-02-04 21:03:00,
2013-02-04 13:19:00,52.1,49.0,30.12,SE,140,4.0,8.0,89,0.00,,,0.01,650,weatherlink.com 1.10,2013-02-04 21:19:00,
2013-02-04 13:34:00,53.1,49.0,30.11,South,170,0.0,9.0,86,0.00,,,0.01,652,weatherlink.com 1.10,2013-02-04 21:34:00,
2013-02-04 13:48:00,54.5,49.0,30.10,SSE,168,6.0,8.0,83,0.00,,,0.01,584,weatherlink.com 1.10,2013-02-04 21:48:00,
2013-02-04 14:03:00,54.6,50.0,30.09,SSW,209,1.0,7.0,83,0.00,,,0.01,499,weatherlink.com 1.10,2013-02-04 22:03:00,
2013-02-04 14:19:00,54.5,49.0,30.09,South,174,5.0,9.0,82,0.00,,,0.01,439,weatherlink.com 1.10,2013-02-04 22:19:00,
2013-02-04 14:33:00,54.2,49.0,30.08,SSE,163,3.0,7.0,82,0.00,,,0.01,327,weatherlink.com 1.10,2013-02-04 22:33:00,
2013-02-04 14:48:00,53.8,49.0,30.08,ESE,123,4.0,8.0,83,0.00,,,0.01,265,weatherlink.com 1.10,2013-02-04 22:48:00,
2013-02-04 15:03:00,53.8,49.0,30.08,SSE,156,1.0,7.0,83,0.00,,,0.01,311,weatherlink.com 1.10,2013-02-04 23:03:00,
2013-02-04 15:19:00,54.4,49.0,30.08,South,169,2.0,6.0,82,0.00,,,0.01,415,weatherlink.com 1.10,2013-02-04 23:19:00,
2013-02-04 15:33:00,55.0,50.0,30.08,SSE,166,0.0,4.0,82,0.00,,,0.01,315,weatherlink.com 1.10,2013-02-04 23:33:00,
2013-02-04 15:48:00,54.8,49.0,30.08,South,181,0.0,6.0,82,0.00,,,0.01,213,weatherlink.com 1.10,2013-02-04 23:48:00,
2013-02-04 16:03:00,54.1,49.0,30.08,NE,35,1.0,4.0,83,0.00,,,0.01,141,weatherlink.com 1.10,2013-02-05 00:03:00,
2013-02-04 16:19:00,54.9,50.0,30.08,ENE,75,0.0,3.0,82,0.00,,,0.01,253,weatherlink.com 1.10,2013-02-05 00:19:00,
2013-02-04 16:34:00,54.1,49.0,30.08,ENE,67,0.0,2.0,82,0.00,,,0.01,123,weatherlink.com 1.10,2013-02-05 00:34:00,
2013-02-04 16:48:00,53.1,48.0,30.08,East,85,0.0,2.0,84,0.00,,,0.01,77,weatherlink.com 1.10,2013-02-05 00:48:00,
2013-02-04 17:04:00,52.3,48.0,30.07,East,100,0.0,2.0,86,0.00,,,0.01,69,weatherlink.com 1.10,2013-02-05 01:04:00,
2013-02-04 17:19:00,51.3,48.0,30.07,SE,126,0.0,1.0,87,0.00,,,0.01,25,weatherlink.com 1.10,2013-02-05 01:19:00,
2013-02-04 17:34:00,50.3,47.0,30.07,SE,126,0.0,0.0,88,0.00,,,0.01,7,weatherlink.com 1.10,2013-02-05 01:34:00,
2013-02-04 17:49:00,49.0,46.0,30.07,SE,126,0.0,0.0,89,0.00,,,0.01,0,weatherlink.com 1.10,2013-02-05 01:49:00,
2013-02-04 18:04:00,48.2,46.0,30.07,SE,126,0.0,0.0,90,0.00,,,0.01,0,weatherlink.com 1.10,2013-02-05 02:04:00,
2013-02-04 18:19:00,47.6,45.0,30.08,SSE,157,0.0,3.0,92,0.00,,,0.01,0,weatherlink.com 1.10,2013-02-05 02:19:00,
2013-02-04 18:34:00,47.1,45.0,30.08,South,179,0.0,4.0,92,0.00,,,0.01,0,weatherlink.com 1.10,2013-02-05 02:34:00,
2013-02-04 18:49:00,46.9,45.0,30.08,WSW,240,0.0,4.0,92,0.00,,,0.01,0,weatherlink.com 1.10,2013-02-05 02:49:00,
2013-02-04 19:04:00,46.4,44.0,30.08,WSW,240,0.0,1.0,92,0.00,,,0.01,0,weatherlink.com 1.10,2013-02-05 03:04:00,
2013-02-04 19:19:00,46.1,44.0,30.08,WSW,240,0.0,0.0,93,0.00,,,0.01,0,weatherlink.com 1.10,2013-02-05 03:19:00,
2013-02-04 19:34:00,45.3,43.0,30.08,WSW,240,0.0,0.0,92,0.00,,,0.01,0,weatherlink.com 1.10,2013-02-05 03:34:00,
2013-02-04 19:49:00,44.2,42.0,30.08,WSW,240,0.0,0.0,93,0.00,,,0.01,0,weatherlink.com 1.10,2013-02-05 03:49:00,
2013-02-04 20:04:00,43.4,42.0,30.08,WSW,240,0.0,0.0,93,0.00,,,0.01,0,weatherlink.com 1.10,2013-02-05 04:04:00,
2013-02-04 20:19:00,42.6,41.0,30.08,WSW,240,0.0,0.0,93,0.00,,,0.01,0,weatherlink.com 1.10,2013-02-05 04:19:00,
2013-02-04 20:34:00,42.7,41.0,30.08,WSW,240,0.0,0.0,94,0.00,,,0.01,0,weatherlink.com 1.10,2013-02-05 04:34:00,
2013-02-04 20:49:00,43.1,42.0,30.09,WSW,240,0.0,0.0,94,0.00,,,0.01,0,weatherlink.com 1.10,2013-02-05 04:49:00,
2013-02-04 21:04:00,42.0,40.0,30.09,WSW,240,0.0,0.0,94,0.00,,,0.01,0,weatherlink.com 1.10,2013-02-05 05:04:00,
2013-02-04 21:19:00,41.5,40.0,30.09,WSW,240,0.0,0.0,94,0.00,,,0.01,0,weatherlink.com 1.10,2013-02-05 05:19:00,
2013-02-04 21:34:00,42.3,41.0,30.09,WSW,240,0.0,0.0,94,0.00,,,0.01,0,weatherlink.com 1.10,2013-02-05 05:34:00,
2013-02-04 21:49:00,42.7,41.0,30.09,WSW,240,0.0,0.0,94,0.00,,,0.01,0,weatherlink.com 1.10,2013-02-05 05:49:00,
2013-02-04 22:04:00,42.8,41.0,30.09,WSW,240,0.0,0.0,94,0.00,,,0.01,0,weatherlink.com 1.10,2013-02-05 06:04:00,
2013-02-04 22:19:00,43.0,41.0,30.10,WSW,240,0.0,0.0,94,0.00,,,0.01,0,weatherlink.com 1.10,2013-02-05 06:19:00,
2013-02-04 22:34:00,43.3,42.0,30.10,WSW,240,0.0,0.0,95,0.00,,,0.01,0,weatherlink.com 1.10,2013-02-05 06:34:00,
2013-02-04 22:49:00,43.4,42.0,30.10,WSW,240,0.0,0.0,95,0.00,,,0.01,0,weatherlink.com 1.10,2013-02-05 06:49:00,
2013-02-04 23:04:00,43.8,43.0,30.10,WSW,240,0.0,0.0,95,0.00,,,0.01,0,weatherlink.com 1.10,2013-02-05 07:04:00,
2013-02-04 23:19:00,44.5,43.0,30.09,WSW,240,0.0,0.0,95,0.00,,,0.01,0,weatherlink.com 1.10,2013-02-05 07:19:00,
2013-02-04 23:34:00,44.6,43.0,30.10,WSW,240,0.0,0.0,95,0.00,,,0.01,0,weatherlink.com 1.10,2013-02-05 07:34:00,
2013-02-04 23:49:00,44.8,44.0,30.10,WSW,240,0.0,1.0,95,0.00,,,0.01,0,weatherlink.com 1.10,2013-02-05 07:49:00,